Погода в Маурене

Лихтенштейн     47°13′07″N   9°32′40″E
темп.,
°C
ветер,
м/с
пор.,
м/с
влажн.,
%
обл.,
%
осадки,
мм/ч
давл.,
гПа
погр.,
м
10 мая, пн
пн1023:00+9ю4783100 0.0 1011158
02:00+9ю588256 0.0 1010218
05:00+9ю58805 0.0 1010224
08:00+12ю477256 0.0 1010326
11:00+18ю474658 0.0 10081285
14:00+22ю3738100 0.0 10082246
17:00+20вюв1548100 0.1 10071654
20:00+14ю2383100 0.4 100767
11 мая, вт
вт1123:00+9ю358839 0.0 1008104
02:00+8ююз24900 0.0 100978
05:00+6зюз11959 0.0 100917
08:00+10вюв118199 0.0 1008205
11:00+12ссз2278100 0.1 1007725
14:00+8сз2297100 1.3 1010241
17:00+7ююз1196100 6.1 1011178
20:00+8ююв1295100 7.6 1011115
12 мая, ср
ср1223:00+7з1196100 0.7 101334
02:00+6сз1298100 3.6 1013131
05:00+6з1197100 3.4 1013111
08:00+5зсз1297100 6.6 1014479
11:00+4ссз1197100 3.3 1014572
14:00+5ссв1197100 4.5 1014604
17:00+5ссв2297100 1.1 1013363
20:00+4с1198100 2.5 1013198
13 мая, чт
чт1323:00+4з0198100 1.2 1013155
02:00+4зюз0198100 2.5 1013133
05:00+4зюз0198100 1.1 1012139
08:00+4юз0198100 2.1 1011187
11:00+5зсз0196100 1.4 1011484
14:00+5сз1195100 2.4 1011622
17:00+6зюз1193100 0.3 1010497
20:00+6юз1194100 0.3 101090
14 мая, пт
пт1423:00+4ююз2295100 0.0 101130
02:00+5ю2192100 0.0 101140
05:00+5ююз1192100 0.1 101014
08:00+6юз119198 0.4 101076
11:00+9с117463 0.1 1010717
14:00+12ссв215693 0.3 10081394
17:00+13ссз2161100 0.4 10071125
20:00+9юз1188100 1.9 100913